PDT,Max TemperatureF,Mean TemperatureF,Min TemperatureF,Max Dew PointF,MeanDew PointF,Min DewpointF,Max Humidity, Mean Humidity, Min Humidity, Max Sea Level PressureIn, Mean Sea Level PressureIn, Min Sea Level PressureIn, Max VisibilityMiles, Mean VisibilityMiles, Min VisibilityMiles, Max Wind SpeedMPH, Mean Wind SpeedMPH, Max Gust SpeedMPH,PrecipitationIn, CloudCover, Events, WindDirDegrees
2012-9-1,83,69,55,53,50,48,77,55,33,30.02,29.96,29.92,10,10,10,14,7,18,0.00,0,,330
2012-9-2,92,74,56,53,49,42,80,49,18,29.97,29.91,29.85,10,10,10,10,5,14,0.00,0,,335
2012-9-3,97,77,56,53,47,42,86,51,16,29.95,29.90,29.85,10,10,10,12,3,17,0.00,0,,349
2012-9-4,94,78,62,49,46,41,56,38,19,29.97,29.92,29.87,10,10,10,13,4,16,0.00,0,,333
2012-9-5,87,76,65,58,50,46,56,43,29,29.96,29.91,29.86,10,10,10,14,7,17,T,1,Thunderstorm,329
2012-9-6,90,76,62,53,49,45,67,48,28,29.95,29.91,29.88,10,10,10,12,6,20,0.00,0,,327
2012-9-7,90,74,58,50,47,40,67,43,19,30.04,29.97,29.92,10,10,10,13,8,21,0.00,0,,324
2012-9-8,91,78,64,48,45,41,52,36,20,30.00,29.94,29.86,10,10,10,15,7,21,0.00,0,,334
2012-9-9,92,78,63,44,41,38,48,32,15,29.94,29.88,29.82,10,10,10,15,7,20,0.00,0,,333
2012-9-10,90,74,58,52,46,40,62,42,21,29.90,29.83,29.76,10,10,10,14,7,16,0.00,0,,326
2012-9-11,92,75,58,53,48,41,80,49,18,29.89,29.84,29.79,10,10,10,9,3,15,0.00,0,,328
2012-9-12,92,76,60,53,50,48,72,48,23,30.02,29.96,29.90,10,10,10,14,4,28,0.00,0,,324
2012-9-13,96,80,64,57,53,51,63,43,23,30.06,29.99,29.93,10,10,10,12,4,18,0.00,0,,327
2012-9-14,97,82,66,56,52,43,58,42,25,30.05,29.99,29.92,10,10,8,13,5,,0.00,0,,342
2012-9-15,95,79,63,49,46,37,52,37,21,30.05,29.98,29.92,10,10,10,14,6,21,0.00,0,,330
2012-9-16,93,78,62,48,44,38,52,36,20,30.01,29.95,29.89,10,10,10,13,5,16,0.00,0,,325
2012-9-17,88,73,57,51,48,42,69,47,24,30.00,29.94,29.90,10,10,7,14,7,17,0.00,0,,328
2012-9-18,86,71,55,49,47,39,77,49,20,30.05,29.99,29.94,10,10,10,17,9,23,0.00,0,,333
2012-9-19,86,72,58,50,47,44,67,45,23,30.06,30.00,29.94,10,10,10,15,8,24,0.00,0,,333
2012-9-20,88,72,56,50,46,37,72,48,24,30.02,29.96,29.90,10,10,10,14,7,17,0.00,0,,333
2012-9-21,91,74,57,53,46,42,62,41,19,29.96,29.90,29.84,10,10,10,13,4,15,0.00,0,,327
2012-9-22,94,77,59,56,47,41,64,41,17,29.91,29.87,29.82,10,10,10,8,3,10,0.00,0,,317
2012-9-23,68,0,68,49,48,48,49,49,49,29.93,29.88,29.85,10,10,10,8,3,,0.00,0,,326
2012-9-24,85,70,55,50,46,41,28,27,25,29.94,29.87,29.82,10,10,10,10,5,,0.00,0,,321
2012-9-25,90,73,55,53,49,46,83,53,23,29.89,29.83,29.78,10,10,10,20,2,23,0.00,0,,321
2012-9-26,89,74,59,55,52,51,80,54,27,29.86,29.82,29.77,10,10,9,9,3,45,0.00,0,,332
2012-9-27,93,77,60,56,53,51,78,52,26,29.90,29.83,29.78,10,10,8,10,5,16,0.00,0,,314
2012-9-28,90,77,63,54,52,50,63,45,26,29.89,29.84,29.79,10,10,9,14,6,26,0.00,0,,332
2012-9-29,92,76,59,54,52,49,72,50,27,30.01,29.95,29.88,10,10,9,17,5,28,0.00,0,,328
2012-9-30,96,77,58,55,52,46,78,49,19,30.05,29.98,29.92,10,10,9,14,2,17,0.00,0,,318